CW4745 Weather Reports


Display with metric or nautical units.
time (UTC)temp
F
wind
direction
speed
MPH
gust
MPH
rain 1hr
in
rain 24hr
in
rain mn
in
humidity
%
barometer
mb
20170423094947 47 313 5.0 10.0 0.03 0.06 0.06 80 1026.1
20170423093947 47 11 6.0 12.0 0.04 0.06 0.06 81 1026.2
20170423092947 45 16 3.0 12.0 0.04 0.06 0.06 82 1026.1
20170423090946 44 2 10.0 16.0 0.04 0.06 0.06 81 1026.4
20170423085945 45 5 4.0 14.0 0.01 0.03 0.02 79 1026.1
20170423084946 45 26 5.0 16.0 0.01 0.03 0.02 76 1026.1
20170423083946 47 10 6.0 15.0 0.00 0.02 0.02 70 1026.0
20170423082946 48 8 7.0 15.0 0.00 0.02 0.02 71 1025.8
20170423081945 47 3 6.0 12.0 0.00 0.02 0.02 73 1025.8
20170423080948 46 16 4.0 13.0 0.00 0.02 0.02 77 1025.8
20170423075947 46 315 6.0 16.0 0.00 0.02 0.02 75 1025.9
20170423074947 47 298 8.0 14.0 0.00 0.02 0.02 71 1025.9
20170423073947 47 341 7.0 13.0 0.00 0.02 0.02 74 1025.8
20170423072948 46 22 6.0 16.0 0.00 0.02 0.02 72 1025.8
20170423071946 46 16 6.0 17.0 0.00 0.02 0.02 73 1025.8
20170423070946 46 16 6.0 14.0 0.00 0.02 0.02 76 1025.7
20170423065945 46 16 11.0 17.0 0.00 0.02 0.02 77 1025.7
20170423064945 45 18 7.0 14.0 0.00 0.02 0.02 77 1025.7
20170423063946 45 12 7.0 13.0 0.00 0.02 0.02 80 1025.6
20170423062945 44 6 6.0 14.0 0.00 0.02 0.02 83 1025.5
20170423061944 43 16 2.0 11.0 0.00 0.02 0.02 83 1025.5
20170423060941 42 15 4.0 15.0 0.00 0.02 0.02 82 1025.5
20170423055941 42 7 5.0 21.0 0.00 0.02 0.02 81 1025.5
20170423054942 43 15 10.0 15.0 0.00 0.02 0.02 79 1025.6
20170423053942 43 16 6.0 12.0 0.00 0.02 0.02 80 1025.3
20170423052942 43 16 5.0 12.0 0.00 0.02 0.02 80 1025.3
20170423051943 43 2 5.0 10.0 0.00 0.02 0.02 81 1025.4
20170423050941 42 16 3.0 9.0 0.00 0.02 0.02 80 1025.3
20170423045941 42 294 5.0 11.0 0.00 0.02 0.02 80 1025.4
20170423044941 42 324 4.0 11.0 0.00 0.02 0.02 78 1025.3
20170423043939 42 332 6.0 12.0 0.00 0.02 0.02 77 1025.4
20170423042940 43 4 6.0 13.0 0.00 0.02 0.02 74 1025.3
20170423041940 43 22 6.0 15.0 0.00 0.02 0.02 74 1025.2
20170423040939 42 1 5.0 9.0 0.00 0.02 0.02 75 1025.2
20170423035940 42 6 4.0 9.0 0.00 0.02 0.02 76 1025.1
20170423034940 42 9 4.0 12.0 0.00 0.02 0.02 77 1025.2
20170423033941 42 16 5.0 11.0 0.00 0.02 0.02 77 1025.0
20170423032940 42 16 4.0 10.0 0.00 0.02 0.02 78 1025.1
20170423031938 42 16 5.0 12.0 0.00 0.02 0.02 77 1025.0
20170423030939 42 16 4.0 9.0 0.00 0.02 0.02 77 1025.1
20170423025939 42 1 4.0 11.0 0.00 0.02 0.02 78 1025.0
20170423024938 41 4 4.0 6.0 0.00 0.02 0.02 78 1025.1
20170423023938 41 5 2.0 6.0 0.00 0.02 0.02 78 1024.9
20170423022938 41 16 2.0 5.0 0.00 0.02 0.02 77 1025.0
20170423021938 41 8 2.0 7.0 0.00 0.02 0.02 76 1025.0
20170423020937 42 16 5.0 11.0 0.00 0.02 0.02 75 1025.1
20170423015937 42 3 5.0 11.0 0.00 0.02 0.02 75 1025.0
20170423014937 42 16 6.0 13.0 0.00 0.02 0.02 75 1025.1
20170423013938 43 11 6.0 12.0 0.00 0.02 0.02 78 1025.1
20170423012936 43 5 4.0 9.0 0.00 0.02 0.02 79 1025.1
20170423011936 42 8 6.0 10.0 0.00 0.02 0.02 79 1025.2
20170423010936 42 8 4.0 9.0 0.00 0.02 0.02 79 1025.1
20170423005936 42 2 4.0 11.0 0.00 0.02 0.02 79 1025.1
20170423004936 42 3 3.0 9.0 0.01 0.02 0.02 81 1025.2
20170423003935 42 339 4.0 11.0 0.01 0.02 0.02 82 1025.2
20170423002935 42 12 3.0 9.0 0.01 0.02 0.02 84 1025.2
20170423001935 42 16 2.0 6.0 0.01 0.02 0.02 84 1025.3
20170423000934 42 2 3.0 10.0 0.01 0.02 0.02 83 1025.4
20170422235934 42 10 4.0 12.0 0.01 0.02 0.02 83 1025.5
20170422234934 41 307 5.0 11.0 0.00 0.02 0.01 82 1025.5
20170422233934 41 5 2.0 5.0 0.01 0.02 0.01 82 1025.4
20170422232934 41 16 0.0 4.0 0.01 0.02 0.01 81 1025.4
20170422231933 41 13 2.0 4.0 0.01 0.02 0.01 81 1025.4
20170422230932 42 2 2.0 7.0 0.01 0.02 0.01 80 1025.6
20170422225932 42 14 5.0 10.0 0.01 0.02 0.01 80 1025.7
20170422224932 42 16 6.0 17.0 0.01 0.02 0.01 81 1025.6
20170422223932 42 320 9.0 18.0 0.00 0.02 0.00 78 1025.7
20170422222932 42 16 3.0 7.0 0.00 0.02 0.00 77 1025.4
20170422221932 42 2 4.0 10.0 0.00 0.02 0.00 77 1025.3
20170422220931 42 12 5.0 11.0 0.00 0.02 0.00 77 1025.4
20170422215928 42 2 6.0 14.0 0.00 0.02 0.02 78 1025.3
20170422214929 42 5 7.0 14.0 0.01 0.02 0.02 79 1025.4
20170422213929 42 1 6.0 10.0 0.01 0.02 0.02 82 1025.5
20170422212929 42 16 2.0 5.0 0.01 0.02 0.02 82 1025.5
20170422211927 42 339 2.0 6.0 0.01 0.02 0.02 82 1025.5
20170422210927 42 7 4.0 10.0 0.01 0.02 0.02 81 1025.6
20170422205926 42 342 7.0 19.0 0.01 0.02 0.02 80 1025.7
20170422204928 43 13 8.0 18.0 0.00 0.02 0.01 80 1025.6
20170422203928 43 15 9.0 18.0 0.00 0.02 0.01 79 1025.7
20170422202928 42 16 5.0 12.0 0.00 0.02 0.01 79 1025.5
20170422201932 42 16 2.0 7.0 0.00 0.02 0.01 79 1025.5
20170422200928 42 8 4.0 11.0 0.00 0.02 0.01 79 1025.5
20170422195929 42 16 8.0 18.0 0.00 0.02 0.01 78 1025.5
20170422194927 43 2 10.0 18.0 0.00 0.03 0.01 74 1025.7
20170422193927 44 16 4.0 16.0 0.00 0.03 0.01 71 1025.5
20170422192926 44 16 6.0 12.0 0.00 0.03 0.01 73 1025.4
20170422191926 44 16 7.0 14.0 0.00 0.03 0.01 72 1025.4
20170422190926 44 5 11.0 17.0 0.00 0.03 0.01 73 1025.4
20170422185926 45 339 14.0 24.0 0.00 0.03 0.01 70 1025.4
20170422184927 45 21 6.0 13.0 0.00 0.03 0.01 69 1025.3
20170422183928 45 12 5.0 13.0 0.00 0.03 0.01 67 1025.4
20170422182925 45 329 7.0 17.0 0.00 0.03 0.01 65 1025.4
20170422181925 45 16 6.0 18.0 0.00 0.03 0.01 66 1025.4
20170422180924 45 76 6.0 16.0 0.00 0.03 0.01 66 1025.4
20170422175924 45 16 9.0 19.0 0.00 0.03 0.01 67 1025.3
20170422174924 46 25 9.0 18.0 0.00 0.03 0.01 69 1025.4
20170422173924 46 6 8.0 18.0 0.00 0.03 0.01 70 1025.5
20170422172923 46 16 9.0 18.0 0.00 0.03 0.01 70 1025.5
20170422171922 46 4 7.0 17.0 0.00 0.03 0.01 70 1025.5
20170422170924 46 3 6.0 13.0 0.00 0.03 0.01 72 1025.5
20170422165920 46 297 5.0 13.0 0.00 0.03 0.01 74 1025.5
20170422164921 45 263 7.0 16.0 0.00 0.03 0.01 74 1025.6
20170422163922 45 339 7.0 13.0 0.00 0.03 0.01 75 1025.7
20170422162922 45 320 7.0 15.0 0.00 0.03 0.01 75 1025.7
20170422161923 46 328 9.0 18.0 0.00 0.03 0.01 72 1025.8
20170422160921 47 341 7.0 14.0 0.00 0.03 0.01 72 1025.5
20170422155922 47 308 5.0 15.0 0.00 0.03 0.01 73 1025.5
20170422154918 46 300 8.0 21.0 0.00 0.03 0.01 72 1025.7
20170422153917 48 14 8.0 17.0 0.00 0.03 0.01 63 1025.7
20170422152917 49 11 8.0 19.0 0.00 0.03 0.01 63 1025.7
20170422151916 49 5 7.0 21.0 0.00 0.03 0.01 63 1025.7
20170422150918 49 0 10.0 20.0 0.00 0.03 0.01 64 1025.6
20170422145917 49 4 12.0 20.0 0.00 0.03 0.01 61 1025.7
20170422144919 49 329 9.0 20.0 0.00 0.03 0.01 60 1025.7
20170422143920 49 33 10.0 23.0 0.00 0.03 0.01 61 1025.6
20170422142919 49 16 9.0 23.0 0.00 0.03 0.01 63 1025.7
20170422141919 50 2 9.0 21.0 0.00 0.03 0.01 63 1025.7
20170422140919 50 15 9.0 23.0 0.00 0.03 0.01 60 1025.7
20170422135918 49 35 11.0 24.0 0.00 0.03 0.01 62 1025.9
20170422134917 50 6 7.0 20.0 0.00 0.03 0.01 64 1025.9
20170422133918 49 315 11.0 17.0 0.00 0.03 0.01 65 1026.0
20170422132914 47 14 7.0 24.0 0.00 0.03 0.01 70 1026.3
20170422131914 49 16 9.0 22.0 0.00 0.03 0.01 61 1026.2
20170422130915 51 6 10.0 24.0 0.00 0.03 0.01 57 1026.1
20170422125914 51 304 12.0 20.0 0.00 0.03 0.01 59 1026.1
20170422124917 51 7 11.0 21.0 0.00 0.03 0.01 56 1026.2
20170422123916 51 8 10.0 20.0 0.00 0.03 0.01 58 1026.2
20170422122917 51 308 8.0 17.0 0.00 0.03 0.01 59 1026.2
20170422121916 51 341 11.0 22.0 0.00 0.03 0.01 62 1026.3
20170422120915 51 12 9.0 19.0 0.00 0.03 0.01 66 1026.3
20170422115914 50 11 7.0 19.0 0.00 0.03 0.01 67 1026.3
20170422114915 49 8 10.0 20.0 0.00 0.03 0.01 66 1026.4
20170422113914 51 338 10.0 22.0 0.00 0.03 0.01 62 1026.4
20170422112913 50 16 8.0 20.0 0.00 0.03 0.01 62 1026.4
20170422111914 50 5 10.0 23.0 0.00 0.03 0.01 60 1026.5
20170422110914 50 15 12.0 20.0 0.00 0.03 0.01 61 1026.6
20170422105913 51 10 7.0 21.0 0.00 0.03 0.01 62 1026.5
20170422104914 50 16 8.0 19.0 0.00 0.03 0.01 63 1026.4
20170422103913 49 301 7.0 19.0 0.00 0.03 0.01 66 1026.5
20170422102913 50 18 10.0 16.0 0.00 0.03 0.01 68 1026.4
20170422101913 50 328 8.0 18.0 0.00 0.03 0.01 68 1026.5
20170422100912 49 9 5.0 16.0 0.00 0.03 0.01 70 1026.6
20170422095913 49 16 10.0 16.0 0.00 0.03 0.01 68 1026.6